星链-34611 (STARLINK-34611)

导读 | 豆包AI

STARLINK-34611是美国SpaceX公司星链星座中的一颗低轨通信卫星,于2025年7月26日发射升空。作为星链全球互联网星座的组成部分,它运行在近地轨道,旨在为全球尤其是偏远地区提供高速、低延迟的宽带互联网服务,也可支持军事与应急通信场景,其部署进一步扩大了星链星座的服务覆盖范围,助力星链持续推进全球卫星互联网组网建设。

基本信息
目录编号:
64918
目录名称:
STARLINK-34611
国际标识:
2025-157Q
轨道中心:
EARTH
卫星名称:
星链-34611
卫星全名:
星链-34611 (STARLINK-34611)
卫星状态:
在轨 (已飞行231 天)
发射日期:
2025-07-26 UTC
国别 :
美国 (US)
星等 :
--
轨道信息
数据来源 国际轨道数据
星历时间: 2026-03-14T07:03:27+0800
15小时前
查看轨道信息
半长轴: 6853.289km
偏心率: 0.0001528
轨道倾角: 53.161°
近地点辐角 69.135°
升交点赤经 326.123°
平近点角 290.982°
近地点: 474.104km
远地点: 476.2km
周期: 94.104分钟
每日圈数: 15.302213
详细信息
固有亮度:
5
最大亮度:
2.5
卫星平台:
Starlink V1.0
覆盖范围:
全球
运营商:
太空探索技术公司
运营商所在国:
美国
制造商(研发单位):
太空探索技术公司
制造商所在国:
美国
使用方式:
暂无
卫星简介
Starlink 计划是 SpaceX 推出的全球卫星互联网项目,通过发射低轨道卫星,为全球尤其是偏远地区提供高速、低延迟的互联网服务。自 2019 年起,Starlink 已部署数千颗卫星,旨在缩小全球数字鸿沟,推动互联网普及。该项目还为军事、航空等行业提供通信支持,带来广泛经济效益。
2D轨道图
3D轨道图
轨道高度分析图
轨道倾角分析图
轨道综合分析图
查看轨道综合分析图